Location: La Mennais
(47.7587°N, 1.2967°W)
Time: 23:02:25
(UTC+00:00)

Daily predictions for brighter satellites

Satellite Brightness Start Highest point End
(mag) Time Altitude Azimuth Time Altitude Azimuth Time Altitude Azimuth
Tsikada Rocket 4.4 16:41:11 10° NNW 16:47:33 75° W 16:53:55 10° S
Cosmos 2221 3.9 16:46:24 10° SE 16:49:24 19° E 16:52:25 10° NE
ISS -3.7 16:47:41 10° WSW 16:51:05 82° SSE 16:54:30 10° ENE
Cosmos 1992 Rocket 4.2 16:46:55 10° SSW 16:52:07 76° WNW 16:57:22 10° NNE
CZ-2C R/B 4.2 16:50:44 10° NE 16:53:32 14° E 16:56:19 10° ESE
USA 81 4.1 16:48:51 10° S 16:54:08 87° E 16:59:26 10° N
Cosmos 1340 Rocket 4.4 16:52:50 10° NNE 16:55:12 15° ENE 16:57:34 10° E
USA 267 3.5 16:48:48 10° NE 16:55:17 68° NNW 17:01:46 10° WSW
Spot 1 4.2 16:51:17 10° NNE 16:55:46 70° ESE 17:00:29 10° S
Cosmos 1503 Rocket 4.3 16:52:29 10° NNW 16:57:53 77° WSW 17:03:14 10° SSE
RESURS DK-1 3.6 16:55:13 10° WSW 16:59:05 38° NW 17:02:58 10° NNE
USA 306 3.5 16:55:55 10° SSW 16:59:57 43° SE 17:03:59 10° ENE
Lacrosse 5 rocket 2.3 16:56:35 10° W 16:59:58 32° NNW 17:03:33 10° NE
Cosmos 1271 Rocket 3.2 16:56:57 10° SSE 17:00:35 40° E 17:04:19 10° NNE
SMAP 3.1 17:01:26 10° SSE 17:05:58 57° ENE 17:10:33 10° N
ATLAS 2AS CENTAUR R/B 3.5 16:59:20 10° WSW 17:07:02 55° NW 17:14:28 10° NE
Cosmos 1408 Rocket 4.2 17:03:57 10° N 17:07:50 31° ENE 17:11:42 10° SE
CZ-4B DEB 4.4 17:04:01 10° SE 17:09:21 52° ENE 17:14:42 10° N
Cosmos 2233 Rocket 4.3 17:04:11 10° SSW 17:10:18 70° W 17:16:31 10° N
Cosmos 1980 Rocket 4.0 17:07:51 10° N 17:10:26 13° NNE 17:12:43 11° ENE
Cosmos 1697 Rocket 4.0 17:06:33 10° N 17:10:31 19° NE 17:14:22 10° E
NOAA 12 4.2 17:07:55 10° SSE 17:13:16 84° WSW 17:18:38 10° NNW
H-2A R/B 2.5 17:08:59 10° SE 17:13:48 38° ENE 17:18:31 10° N
USA 307 3.3 17:10:52 10° SW 17:15:00 50° SE 17:18:33 14° ENE
PAYLOAD B 4.5 17:11:15 10° SE 17:16:36 48° ENE 17:21:58 10° N
Cosmos 44 4.1 17:12:31 10° NNW 17:16:51 30° NE 17:20:56 10° E
Cosmos 1777 Rocket 4.0 17:13:39 10° NNW 17:18:57 78° ENE 17:24:14 10° SSE
ATLAS CENTAUR R/B 1.4 17:15:50 10° SSW 17:19:51 69° SE 17:23:56 12° NE
Cosmos 2034 Rocket 4.4 17:15:33 10° SSE 17:21:12 39° E 17:26:51 10° NNE
Lacrosse 5 2.0 17:16:58 10° NW 17:22:07 83° SW 17:27:13 10° SE
NOSS 3-1 (A) 4.4 17:16:37 10° NW 17:23:14 41° NE 17:31:02 10° ESE
Cosmos 1939 Rocket 2.9 17:19:15 10° SSE 17:23:23 88° E 17:27:32 10° NNW
SL-16 R/B 4.4 17:22:55 10° WNW 17:26:35 17° NW 17:30:17 10° N
NOSS 3-1 (C) 4.1 17:21:24 10° NW 17:28:29 56° NE 17:36:51 10° ESE
Okean 3 Rocket 3.7 17:24:25 10° N 17:28:59 87° W 17:33:28 10° S
NOSS 2-1 (C) 2.7 17:26:36 10° SSW 17:29:53 71° SE 17:32:11 18° NE
Cosmos 1656 4.1 17:25:10 10° NNW 17:30:20 39° NE 17:35:32 10° ESE
MOS 1-B Rocket 4.4 17:25:55 10° NNE 17:31:13 39° E 17:36:56 10° SSE
Cosmos 1862 3.6 17:30:13 10° NNW 17:34:11 71° W 17:38:09 10° S
CZ-2D R/B 3.3 17:31:12 10° SSE 17:34:57 56° ENE 17:38:45 10° N
GEOS 3 Rocket 3.6 17:30:25 10° SE 17:35:36 63° NE 17:40:45 10° NW
Cosmos 1461 3.1 17:32:05 10° SW 17:36:19 69° NW 17:39:49 14° NNE
PSLV R/B 3.5 17:33:13 10° SSE 17:36:53 70° ENE 17:40:33 10° N
USA 308 2.9 17:32:48 10° SW 17:37:02 70° SE 17:39:45 21° ENE
MOS 1-B 4.3 17:31:26 10° SSE 17:37:08 65° ENE 17:42:52 10° N
NOSS 2-1 (D) 2.7 17:35:50 10° SW 17:39:07 89° SE 17:41:11 21° NE
Cosmos 1500 Rocket 4.0 17:37:11 10° N 17:41:25 40° ENE 17:45:36 10° SE
ATLAS 3B R/B 4.5 17:36:57 10° NW 17:43:29 37° WSW 17:50:13 10° S
SJ 16-02 1.4 17:39:24 10° NNW 17:43:48 84° WSW 17:48:10 10° SSE
CZ-2C R/B 4.5 17:41:35 10° SSW 17:46:20 39° W 17:50:56 10° NNW
Cosmos 1805 Rocket 4.2 17:47:49 10° N 17:51:42 31° ENE 17:55:34 10° SE
Cosmos 1842 Rocket 3.5 17:47:54 10° S 17:52:18 72° E 17:56:47 10° NNE
CZ-4C R/B 3.8 17:47:27 10° NW 17:53:00 27° NNE 17:56:08 21° ENE
CZ-4B R/B 3.1 17:48:55 10° SSE 17:54:21 66° ENE 17:59:43 10° N
ATLAS 5 CENTAUR R/B 3.5 17:47:35 10° NW 17:57:03 32° N 17:58:53 24° NE
Cosmos 1833 Rocket 3.6 17:53:48 10° SSE 17:58:16 25° ESE 17:58:47 25° E
CZ-4 R/B 3.2 18:00:41 17° NNE 18:00:41 17° NNE 18:01:57 10° N
Cosmos 1606 3.4 18:02:56 10° SSW 18:06:36 54° WNW 18:10:19 10° N
Meteor 1-25 Rocket 4.1 18:01:54 10° N 18:07:26 61° ENE 18:12:55 10° SSE
USA 305 2.9 18:03:46 10° WSW 18:07:59 72° NNW 18:09:32 38° NE
Cosmos 2026 Rocket 4.0 18:02:09 10° N 18:08:13 52° ENE 18:14:09 10° SSE
Cosmos 2195 Rocket 4.4 18:03:28 10° N 18:09:33 62° ENE 18:15:39 10° SSE
USA 276 2.2 18:07:17 10° WNW 18:10:23 56° N 18:10:26 56° N
Sich 1 4.0 18:06:49 10° N 18:09:17 28° NNE 18:09:17 28° NNE
Okean O Rocket 1.5 18:08:42 10° SSE 18:13:07 74° ENE 18:17:35 10° N
ARGOS 3.0 18:08:53 10° SSE 18:14:18 74° ENE 18:19:43 10° N
COSMO-SKYMED 1 2.4 18:11:30 20° NNE 18:14:26 69° ESE 18:18:46 10° S
ATLAS CENTAUR R/B 3.0 18:08:15 10° SSW 18:17:44 49° SE 18:19:17 38° E
ERBS 2.2 18:16:53 10° SW 18:19:49 67° S 18:19:49 67° S
Cosmos 1937 Rocket 3.8 18:15:33 10° N 18:20:36 42° ENE 18:21:05 41° ENE
Helios 1B 4.5 18:23:38 23° NNE 18:26:21 89° WNW 18:30:41 10° SSW
Cosmos 2221 3.6 18:22:33 10° SSW 18:26:36 43° WNW 18:30:44 10° N
Cosmos 1763 Rocket 3.4 18:23:03 10° S 18:27:59 55° ESE 18:28:45 50° ENE
ISS -2.9 18:24:51 10° W 18:27:49 41° NNW 18:27:49 41° NNW
Cosmos 1340 Rocket 3.5 18:28:01 10° NNW 18:32:00 56° W 18:35:59 10° S
Cosmos 1933 3.2 18:29:27 10° S 18:33:24 77° ESE 18:33:24 77° ESE
deb Chang Zheng 4 4.2 18:29:36 10° S 18:33:49 55° WSW 18:38:05 10° NNW
YAOGAN 1 3.5 18:35:37 35° N 18:35:37 35° N 18:38:15 10° N
CZ-2C R/B 2.5 18:29:16 10° NNE 18:34:33 84° WNW 18:39:44 10° SSW
Meteor 2-21 4.3 18:31:05 10° N 18:37:15 75° E 18:43:18 10° SSE
USA 267 4.0 18:35:05 29° NE 18:37:46 41° N 18:43:48 10° WNW
Cosmos 2369 4.0 18:32:49 10° NNW 18:38:07 45° NE 18:38:07 45° NE
Feng Yun 1-1 Rocket 4.3 18:33:28 10° SSE 18:39:23 82° ENE 18:45:20 10° NNW
NOSS 2-1 (E) 4.5 18:36:32 10° W 18:39:24 28° NW 18:39:37 28° NNW
Landsat 5 3.4 18:38:53 57° N 18:39:43 87° WNW 18:43:52 10° SSW
USA 306 3.3 18:35:37 10° W 18:39:46 53° NNW 18:40:01 52° N
Lacrosse 5 rocket 3.1 18:36:58 10° NW 18:39:29 21° N 18:39:29 21° N
Cosmos 990 Rocket 4.0 18:35:54 10° NNW 18:41:08 79° WSW 18:46:18 10° SSE
Cosmos 2322 Rocket 4.3 18:40:19 10° N 18:41:20 12° NNE 18:41:20 12° NNE
USA 229 DEB 3.8 18:44:12 10° NW 18:51:32 82° NE 18:54:57 37° SE
USA 229 3.8 18:44:17 10° NW 18:51:38 82° NE 18:54:58 38° SE
Cosmos 1092 Rocket 4.4 18:46:08 10° NNW 18:52:25 66° W 18:58:41 10° S
H-2A R/B 3.7 18:48:30 10° SSW 18:53:15 33° W 18:57:55 10° NNW
USA 307 3.6 18:50:47 10° W 18:54:34 48° NW 18:54:34 48° NW
Cosmos 1697 Rocket 2.5 18:49:43 10° NNW 18:55:23 83° ENE 18:56:10 67° SE
SL-16 R/B 4.2 18:51:38 10° N 18:53:08 15° N 18:53:08 15° N
Cosmos 1980 Rocket 2.9 18:50:25 10° NNW 18:54:31 40° NNE 18:54:31 40° NNE
COSMOS 2455 4.3 18:52:17 10° S 18:54:37 22° SSE 18:54:37 22° SSE
Cosmos 44 3.8 18:53:40 10° NW 18:58:21 52° WSW 18:59:25 42° SSW
COSMOS 2406 3.6 18:52:57 10° S 18:57:17 46° SSE 18:57:17 46° SSE
ATLAS CENTAUR R/B 3.4 18:55:48 10° W 18:59:12 23° NNW 19:00:03 22° NNW
ATLAS 2AS CENTAUR R/B 4.3 18:53:19 10° WNW 18:59:41 26° NNW 19:02:55 20° NNE
Meteor 1-26 Rocket 4.2 18:54:09 10° S 19:00:02 87° E 19:02:35 37° NNE
Cosmos 2082 Rocket 4.1 18:57:07 10° S 18:58:13 15° SSE 18:58:13 15° SSE
Cosmos 2142 Rocket 4.3 18:57:54 10° S 19:04:00 75° E 19:04:23 72° ENE
Lacrosse 5 4.4 19:01:03 10° W 19:04:26 18° WSW 19:07:48 10° SSW
Cosmos 1898 Rocket 3.9 19:04:58 10° NNW 19:10:11 61° WSW 19:11:39 44° SSW
Meteor 1-14 Rocket 4.4 19:04:34 10° N 19:09:24 64° N 19:09:24 64° N
NOSS 3-1 (A) 4.2 19:07:20 10° NW 19:14:50 75° SW 19:19:12 33° SSE
Cosmos 2279 Rocket 4.0 19:22:16 10° SSW 19:28:11 76° WSW 19:28:11 76° WSW
CZ-4 R/B 4.2 19:36:41 13° NW 19:36:41 13° NW 19:37:09 10° NNW
Cosmos 1833 Rocket 3.5 19:36:16 10° SW 19:40:32 47° WSW 19:40:32 47° WSW
CZ-4C R/B 3.2 19:35:48 10° NW 19:41:21 55° N 19:41:21 55° N
